Location: Pl�tzky
(52.0521°N, 11.8020°E)
Time: 09:51:37
(UTC+00:00)

Cosmos 923 Rocket - Pass Details

Date: 22 November 2019
Orbit: 759 x 785 km, 74.0° (Epoch: 08 December)

Event Time Altitude Azimuth Distance (km) Brightness Sun altitude
Rises 16:39:34 0° 206° (SSW) 3,215 7.9 -12.9°
Reaches altitude 10° 16:41:56 10° 207° (SSW) 2,291 7.1 -13.2°
Maximum altitude 16:47:09 82° 295° (WNW) 775 4.1 -14.0°
Drops below altitude 10° 16:52:23 10° 24° (NNE) 2,302 6.1 -14.8°
Enters shadow 16:52:51 - 24° (NNE) 2,488 6.3 -14.9°
